WA6MHA-11 Weather Reports


Display with metric or nautical units.
time (UTC)temp
F
wind
direction
speed
MPH
gust
MPH
rain 1hr
in
rain 24hr
in
rain mn
in
humidity
%
barometer
mb
20210228100928 49 45 0.0 2.0 0.00 0.00 0.02 22 1019.0
20210228100559 49 312 2.0 2.0 0.00 0.00 0.02 22 1019.0
20210228100546 49 312 2.0 2.0 0.00 0.00 0.02 22 1019.0
20210228100129 49 315 1.0 3.0 0.00 0.00 0.02 22 1019.0
20210228095725 49 45 0.0 2.0 0.00 0.00 0.02 22 1018.9
20210228095329 50 270 0.0 0.0 0.00 0.00 0.02 22 1019.0
20210228094932 51 270 0.0 2.0 0.00 0.00 0.02 22 1018.9
20210228094112 52 270 1.0 1.0 0.00 0.00 0.02 21 1018.8
20210228093712 52 225 0.0 1.0 0.00 0.00 0.02 21 1018.8
20210228092942 53 222 1.0 1.0 0.00 0.00 0.02 21 1018.6
20210228092920 53 222 1.0 1.0 0.00 0.00 0.02 21 1018.6
20210228092524 53 90 4.0 5.0 0.00 0.00 0.02 21 1018.6
20210228092105 54 9 1.0 5.0 0.00 0.00 0.02 21 1018.5
20210228091711 54 0 5.0 8.0 0.00 0.00 0.02 22 1018.4
20210228090903 54 317 6.0 6.0 0.00 0.00 0.02 22 1018.5
20210228090537 54 294 3.0 4.0 0.00 0.00 0.02 22 1018.6
20210228090516 54 294 3.0 4.0 0.00 0.00 0.02 22 1018.6
20210228090106 55 330 1.0 3.0 0.00 0.00 0.02 22 1018.5
20210228085731 55 348 3.0 4.0 0.00 0.00 0.02 22 1018.5
20210228085658 55 348 3.0 4.0 0.00 0.00 0.02 22 1018.5
20210228085109 56 346 5.0 11.0 0.00 0.00 0.02 22 1018.3
20210228085019 56 346 5.0 11.0 0.00 0.00 0.02 22 1018.3
20210228084527 55 333 6.0 6.0 0.00 0.00 0.02 22 1018.4
20210228084456 55 333 6.0 6.0 0.00 0.00 0.02 22 1018.4
20210228084151 55 319 5.0 9.0 0.00 0.00 0.02 23 1018.4
20210228084100 55 319 5.0 9.0 0.00 0.00 0.02 23 1018.4
20210228083652 55 315 5.0 12.0 0.00 0.00 0.02 23 1018.3
20210228083342 55 270 2.0 7.0 0.00 0.00 0.02 23 1018.3
20210228083250 55 270 2.0 7.0 0.00 0.00 0.02 23 1018.3
20210228082901 55 270 2.0 7.0 0.00 0.00 0.02 23 1018.2
20210228082639 55 290 4.0 8.0 0.00 0.00 0.02 23 1018.2
20210228082448 55 290 4.0 8.0 0.00 0.00 0.02 23 1018.2
20210228082151 55 261 5.0 7.0 0.00 0.00 0.02 23 1018.3
20210228082047 55 261 5.0 7.0 0.00 0.00 0.02 23 1018.3
20210228081645 55 279 2.0 6.0 0.00 0.00 0.02 23 1018.4
20210228081244 55 4 3.0 8.0 0.00 0.00 0.02 23 1018.2
20210228080923 55 315 5.0 8.0 0.00 0.00 0.02 23 1018.2
20210228080847 55 315 5.0 8.0 0.00 0.00 0.02 23 1018.2
20210228080532 55 211 4.0 6.0 0.00 0.00 0.02 23 1018.0
20210228080451 55 211 4.0 6.0 0.00 0.00 0.02 23 1018.0
20210228080040 55 288 2.0 10.0 0.00 0.00 0.02 23 1018.1
20210228075643 56 333 7.0 10.0 0.00 0.00 0.02 23 1018.0
20210228075319 56 276 2.0 11.0 0.00 0.00 0.02 23 1018.0
20210228075311 56 276 2.0 11.0 0.00 0.00 0.02 23 1018.0
20210228074839 56 326 7.0 13.0 0.00 0.00 0.02 23 1018.1
20210228074438 56 319 7.0 9.0 0.00 0.00 0.02 23 1017.9
20210228074109 56 335 3.0 10.0 0.00 0.00 0.02 23 1018.1
20210228074035 56 335 3.0 10.0 0.00 0.00 0.02 23 1018.1
20210228073714 56 330 8.0 12.0 0.00 0.00 0.02 23 1018.1
20210228073632 56 330 8.0 12.0 0.00 0.00 0.02 23 1018.1
20210228073237 56 344 11.0 16.0 0.00 0.00 0.02 23 1017.9
20210228072608 57 348 10.0 16.0 0.00 0.00 0.02 23 1017.7
20210228072528 57 348 10.0 16.0 0.00 0.00 0.02 23 1017.7
20210228072027 57 0 7.0 16.0 0.00 0.00 0.02 23 1017.8
20210228071627 57 335 15.0 20.0 0.00 0.00 0.02 22 1017.8
20210228071317 57 337 9.0 19.0 0.00 0.00 0.02 22 1017.9
20210228071225 57 337 9.0 19.0 0.00 0.00 0.02 22 1017.9
20210228070914 56 355 11.0 12.0 0.00 0.00 0.02 22 1017.9
20210228070824 56 355 11.0 12.0 0.00 0.00 0.02 22 1017.9
20210228070422 56 355 9.0 14.0 0.00 0.00 0.02 22 1017.8
20210228070032 56 328 5.0 13.0 0.00 0.00 0.02 22 1017.8
20210228065620 56 346 9.0 12.0 0.00 0.00 0.02 22 1017.8
20210228065219 56 333 3.0 9.0 0.00 0.00 0.02 22 1017.9
20210228064821 55 328 3.0 7.0 0.00 0.00 0.02 22 1017.9
20210228064448 55 330 3.0 11.0 0.00 0.00 0.02 21 1017.8
20210228064418 55 330 3.0 11.0 0.00 0.00 0.02 21 1017.8
20210228064029 55 312 4.0 8.0 0.00 0.00 0.02 21 1017.8
20210228063617 55 276 4.0 5.0 0.00 0.00 0.02 21 1017.9
20210228063344 55 335 5.0 7.0 0.00 0.00 0.02 21 1018.0
20210228063050 55 317 4.0 8.0 0.00 0.00 0.02 21 1018.0
20210228062805 55 328 4.0 9.0 0.00 0.00 0.02 21 1018.0
20210228062628 55 328 4.0 9.0 0.00 0.00 0.02 21 1018.0
20210228062101 55 294 2.0 6.0 0.00 0.00 0.02 21 1018.0
20210228062025 55 294 2.0 6.0 0.00 0.00 0.02 21 1018.0
20210228061610 55 308 5.0 0.0 0.00 0.00 0.02 21 1017.9
20210228061210 55 299 4.0 7.0 0.00 0.00 0.02 21 1017.8
20210228060403 55 308 9.0 12.0 0.00 0.00 0.02 21 1017.9
20210228060043 55 319 7.0 10.0 0.00 0.00 0.02 21 1018.0
20210228060023 55 319 7.0 10.0 0.00 0.00 0.02 21 1018.0
20210228055601 55 319 4.0 7.0 0.00 0.00 0.02 21 1017.9
20210228055201 55 342 9.0 10.0 0.00 0.00 0.02 21 1017.9
20210228054820 54 348 10.0 10.0 0.00 0.00 0.02 21 1017.9
20210228053956 54 281 4.0 6.0 0.00 0.00 0.02 20 1017.9
20210228053626 54 270 3.0 5.0 0.00 0.00 0.02 20 1017.9
20210228053603 54 270 3.0 5.0 0.00 0.00 0.02 20 1017.9
20210228053222 54 355 1.0 6.0 0.00 0.00 0.02 20 1017.9
20210228053106 54 260 3.0 6.0 0.00 0.00 0.02 20 1017.8
20210228052407 54 240 2.0 19.0 0.00 0.00 0.02 20 1017.7
20210228052034 54 276 6.0 7.0 0.00 0.00 0.02 20 1017.7
20210228051952 54 276 6.0 7.0 0.00 0.00 0.02 20 1017.7
20210228051948 54 276 6.0 7.0 0.00 0.00 0.02 20 1017.7
20210228051547 55 285 6.0 9.0 0.00 0.00 0.02 20 1017.7
20210228051219 55 294 4.0 14.0 0.00 0.00 0.02 20 1017.5
20210228051157 55 294 4.0 14.0 0.00 0.00 0.02 20 1017.5
20210228050824 54 324 8.0 8.0 0.00 0.00 0.02 20 1017.4
20210228050425 55 310 2.0 8.0 0.00 0.00 0.02 20 1017.4
20210228050345 55 310 2.0 8.0 0.00 0.00 0.02 20 1017.4
20210228050033 54 315 8.0 11.0 0.00 0.00 0.02 20 1017.3
20210228045942 54 315 8.0 11.0 0.00 0.00 0.02 20 1017.3
20210228045637 54 297 4.0 6.0 0.00 0.00 0.02 20 1017.4
20210228045139 54 299 5.0 8.0 0.00 0.00 0.02 20 1017.3
20210228044745 54 292 6.0 7.0 0.00 0.00 0.02 19 1017.3
20210228044337 54 274 3.0 5.0 0.00 0.00 0.02 19 1017.4
20210228044028 54 243 3.0 6.0 0.00 0.00 0.02 19 1017.4
20210228043938 54 243 3.0 6.0 0.00 0.00 0.02 19 1017.4
20210228043541 54 234 2.0 3.0 0.00 0.00 0.02 19 1017.3
20210228043234 55 180 2.0 6.0 0.00 0.00 0.02 19 1017.3
20210228043133 55 180 2.0 6.0 0.00 0.00 0.02 19 1017.3
20210228042920 55 213 3.0 7.0 0.00 0.00 0.02 19 1017.0
20210228042333 55 270 2.0 8.0 0.00 0.00 0.02 19 1017.0
20210228041930 55 270 5.0 8.0 0.00 0.00 0.02 19 1016.8
20210228041530 56 270 6.0 11.0 0.00 0.00 0.02 19 1016.9
20210228041219 56 265 9.0 11.0 0.00 0.00 0.02 19 1017.0
20210228041128 56 265 9.0 11.0 0.00 0.00 0.02 19 1017.0
20210228040726 56 294 8.0 9.0 0.00 0.00 0.02 19 1017.0
20210228040326 56 308 6.0 11.0 0.00 0.00 0.02 18 1017.0
20210228035923 56 320 3.0 13.0 0.00 0.00 0.02 18 1016.9
20210228035522 57 301 9.0 16.0 0.00 0.00 0.02 18 1017.1
20210228035123 56 274 10.0 11.0 0.00 0.00 0.02 18 1016.9
20210228034801 56 292 6.0 13.0 0.00 0.00 0.02 18 1017.0
20210228034724 56 292 6.0 13.0 0.00 0.00 0.02 18 1017.0
20210228034048 57 326 11.0 16.0 0.00 0.00 0.02 17 1016.9
20210228033518 56 317 15.0 16.0 0.00 0.00 0.02 17 1016.9
20210228032754 57 6 3.0 6.0 0.00 0.00 0.02 16 1017.1
20210228032713 57 6 3.0 6.0 0.00 0.00 0.02 16 1017.1
20210228032314 57 45 3.0 9.0 0.00 0.00 0.02 16 1017.0
20210228031910 57 333 4.0 8.0 0.00 0.00 0.02 16 1017.1
20210228031542 57 198 1.0 4.0 0.00 0.00 0.02 16 1017.3
20210228031523 57 198 1.0 4.0 0.00 0.00 0.02 16 1017.3
20210228030710 58 132 5.0 11.0 0.00 0.00 0.02 16 1017.0
20210228030401 58 312 7.0 10.0 0.00 0.00 0.02 16 1017.1
20210228030305 58 312 7.0 10.0 0.00 0.00 0.02 16 1017.1
20210228025936 58 36 2.0 6.0 0.00 0.00 0.02 16 1017.2
20210228025904 58 36 2.0 6.0 0.00 0.00 0.02 16 1017.2
20210228025510 58 90 1.0 7.0 0.00 0.00 0.02 15 1016.9
20210228025249 58 121 1.0 6.0 0.00 0.00 0.02 15 1016.7
20210228024701 58 180 3.0 22.0 0.00 0.00 0.02 15 1016.5
20210228024259 58 90 3.0 8.0 0.00 0.00 0.02 15 1016.6
20210228023902 58 180 4.0 4.0 0.00 0.00 0.02 15 1016.3
20210228023457 58 204 5.0 7.0 0.00 0.00 0.02 15 1016.2
20210228023057 58 173 3.0 7.0 0.00 0.00 0.02 15 1016.1
20210228022844 58 263 4.0 10.0 0.00 0.00 0.02 14 1016.2
20210228022252 58 274 3.0 5.0 0.00 0.00 0.02 14 1016.3
20210228021852 58 85 3.0 7.0 0.00 0.00 0.02 14 1016.2
20210228021050 59 312 4.0 11.0 0.00 0.00 0.02 14 1016.0
20210228020650 59 337 5.0 16.0 0.00 0.00 0.02 13 1016.0
20210228020322 59 303 3.0 19.0 0.00 0.00 0.02 13 1015.9
20210228020251 59 303 3.0 19.0 0.00 0.00 0.02 13 1015.9
20210228015845 59 351 10.0 13.0 0.00 0.00 0.02 13 1015.9
20210228015447 60 306 6.0 10.0 0.00 0.00 0.02 13 1015.9
20210228015043 60 36 10.0 16.0 0.00 0.00 0.02 13 1015.8
20210228014241 61 346 13.0 21.0 0.00 0.00 0.02 13 1015.6
20210228013438 61 345 14.0 34.0 0.00 0.00 0.02 12 1015.3
20210228013051 61 342 13.0 25.0 0.00 0.00 0.02 12 1015.2
20210228012234 62 346 16.0 26.0 0.00 0.00 0.01 12 1014.7
20210228011833 62 320 7.0 25.0 0.00 0.00 0.01 12 1014.8
20210228011453 62 306 12.0 20.0 0.00 0.00 0.01 12 1014.9
20210228011032 63 333 11.0 20.0 0.00 0.00 0.01 12 1014.9
20210228010629 63 321 8.0 16.0 0.00 0.00 0.01 12 1015.1
20210228010230 63 333 13.0 17.0 0.00 0.00 0.01 12 1015.0
20210228005934 63 346 17.0 17.0 0.00 0.00 0.01 11 1015.1
20210228005832 63 346 17.0 17.0 0.00 0.00 0.01 11 1015.1
20210228005427 63 353 17.0 21.0 0.00 0.00 0.01 11 1015.1
20210228005229 64 337 19.0 20.0 0.00 0.00 0.01 11 1014.9
20210228004622 64 328 11.0 16.0 0.00 0.00 0.01 11 1014.9
20210228004317 64 342 13.0 15.0 0.00 0.00 0.01 11 1015.0
20210228004224 64 342 13.0 15.0 0.00 0.00 0.01 11 1015.0
20210228003821 64 328 12.0 22.0 0.00 0.00 0.01 11 1015.0
20210228003027 65 355 18.0 23.0 0.00 0.00 0.01 11 1014.8
20210228002251 66 317 13.0 25.0 0.00 0.00 0.01 11 1014.7
20210228002220 66 317 13.0 25.0 0.00 0.00 0.01 11
20210228001415 66 335 16.0 35.0 0.00 0.00 0.01 11 1014.6
20210228001048 66 10 27.0 38.0 0.00 0.00 0.01 11 1014.5
20210228000609 66 353 29.0 29.0 0.00 0.00 0.01 11 1014.3
20210227235838 67 319 12.0 24.0 0.00 0.00 0.01 11 1014.6
20210227235809 67 319 12.0 24.0 0.00 0.00 0.01 11 1014.6
20210227235450 67 344 24.0 24.0 0.00 0.00 0.01 11 1014.4
20210227235220 67 342 23.0 25.0 0.00 0.00 0.01 11 1014.5
20210227234606 67 350 21.0 21.0 0.00 0.00 0.01 11 1014.5
20210227234203 67 321 10.0 24.0 0.00 0.00 0.01 11 1014.7
20210227233800 68 333 12.0 22.0 0.00 0.00 0.01 11 1014.6
20210227233446 68 333 11.0 24.0 0.00 0.00 0.01 11 1014.4
20210227233359 68 333 11.0 24.0 0.00 0.00 0.01 11 1014.4
20210227233051 68 319 9.0 27.0 0.00 0.00 0.01 11 1014.4
20210227232740 68 328 13.0 31.0 0.00 0.00 0.01 11 1014.1
20210227231349 69 320 22.0 25.0 0.00 0.00 0.01 12 1014.1
20210227230555 69 346 15.0 22.0 0.00 0.00 0.00 12 1014.1
20210227230143 70 330 9.0 32.0 0.00 0.00 0.00 13 1014.1
20210227225743 70 345 11.0 22.0 0.00 0.00 0.00 13 1014.0
20210227225339 70 353 18.0 23.0 0.00 0.00 0.00 13 1014.1
20210227224538 70 333 7.0 21.0 0.00 0.00 0.00 14 1014.0
20210227224137 70 312 6.0 16.0 0.00 0.00 0.01 14 1014.2
20210227223739 70 342 16.0 16.0 0.00 0.00 0.01 14 1014.0
20210227223336 70 328 6.0 16.0 0.00 0.00 0.01 14 1014.2
20210227222931 70 346 8.0 15.0 0.00 0.00 0.01 14 1014.2
20210227222159 70 339 10.0 20.0 0.00 0.00 0.01 15 1014.1
20210227222123 70 339 10.0 20.0 0.00 0.00 0.01 15 1014.1
20210227221722 71 292 8.0 13.0 0.00 0.00 0.01 15 1014.1
20210227221322 70 330 9.0 11.0 0.00 0.00 0.01 15 1014.1
20210227220922 70 317 6.0 13.0 0.00 0.00 0.01 15 1014.2
20210227220518 70 333 9.0 13.0 0.00 0.00 0.01 15 1014.2
20210227220117 70 324 11.0 13.0 0.00 0.00 0.01 15 1014.3
20210227215314 70 328 5.0 18.0 0.00 0.00 0.01 15 1014.2
20210227214947 70 353 13.0 19.0 0.00 0.00 0.01 15 1014.2
20210227214915 70 353 13.0 19.0 0.00 0.00 0.01 15 1014.2
20210227214526 70 308 7.0 21.0 0.00 0.00 0.01 16 1014.4
20210227214113 70 24 9.0 17.0 0.00 0.00 0.01 16 1014.3
20210227213711 70 285 9.0 13.0 0.00 0.00 0.01 16 1014.3
20210227213311 69 319 9.0 16.0 0.00 0.00 0.01 16 1014.5
20210227212931 70 344 13.0 19.0 0.00 0.00 0.01 16 1014.5
20210227212542 69 4 14.0 14.0 0.00 0.00 0.01 16 1014.5
20210227212138 69 312 8.0 19.0 0.00 0.00 0.01 16 1014.6
20210227212112 69 312 8.0 19.0 0.00 0.00 0.01 16 1014.6
20210227211703 69 328 10.0 12.0 0.00 0.00 0.01 16 1014.7
20210227211302 69 337 16.0 23.0 0.00 0.00 0.01 16 1014.7
20210227210512 69 7 8.0 22.0 0.00 0.00 0.01 17 1015.0
20210227210135 69 345 12.0 21.0 0.00 0.00 0.01 17 1014.9
20210227210100 69 345 12.0 21.0 0.00 0.00 0.01 17 1014.9
20210227205719 68 330 17.0 21.0 0.00 0.00 0.01 17 1014.8
20210227205621 69 337 13.0 20.0 0.00 0.00 0.01 18 1014.9
20210227204854 68 342 20.0 20.0 0.00 0.00 0.01 18 1014.9
20210227204452 68 344 6.0 11.0 0.00 0.00 0.01 18 1015.1
20210227204128 68 342 11.0 14.0 0.00 0.00 0.01 18 1015.2
20210227204055 68 342 11.0 14.0 0.00 0.00 0.01 18 1015.2
20210227203651 67 335 11.0 17.0 0.00 0.00 0.01 18 1015.2
20210227203328 67 300 9.0 14.0 0.00 0.00 0.01 19 1015.3
20210227203248 67 300 9.0 14.0 0.00 0.00 0.01 19 1015.3
20210227202958 67 317 10.0 20.0 0.00 0.00 0.01 19 1015.4
20210227202614 67 299 10.0 17.0 0.00 0.00 0.01 19 1015.5
20210227202527 67 299 10.0 17.0 0.00 0.00 0.01 19 1015.5
20210227202118 68 324 8.0 15.0 0.00 0.00 0.01 19 1015.6
20210227202047 68 324 4.0 15.0 0.00 0.00 0.01 19 1015.6
20210227202045 68 324 8.0 15.0 0.00 0.00 0.01 19 1015.6
20210227201643 68 344 15.0 17.0 0.00 0.00 0.01 19 1015.6
20210227201249 67 324 14.0 18.0 0.00 0.00 0.01 19 1015.7
20210227200846 67 326 14.0 18.0 0.00 0.00 0.01 20 1015.8
20210227200444 67 328 11.0 16.0 0.00 0.00 0.01 20 1015.9
20210227200113 67 326 15.0 17.0 0.00 0.00 0.01 20 1015.9
20210227195238 67 312 10.0 20.0 0.00 0.00 0.01 20 1016.2
20210227194835 67 310 13.0 14.0 0.00 0.00 0.01 20 1016.2
20210227194535 67 346 9.0 15.0 0.00 0.00 0.01 21 1016.4
20210227194437 67 346 9.0 15.0 0.00 0.00 0.01 21 1016.4
20210227194035 67 342 10.0 20.0 0.00 0.00 0.01 21 1016.4
20210227193631 67 337 13.0 19.0 0.00 0.00 0.01 21 1016.4
20210227193308 67 335 16.0 23.0 0.00 0.00 0.01 21 1016.4
20210227193202 67 333 13.0 24.0 0.00 0.00 0.01 21 1016.5
20210227192430 67 335 14.0 24.0 0.00 0.00 0.01 21 1016.5
20210227192031 67 333 16.0 21.0 0.00 0.00 0.01 21 1016.4
20210227191625 67 353 21.0 24.0 0.00 0.00 0.01 21 1016.5
20210227191223 67 346 17.0 27.0 0.00 0.00 0.01 22 1016.8
20210227190824 67 330 19.0 27.0 0.00 0.00 0.01 22 1016.8
20210227190423 67 9 13.0 20.0 0.00 0.00 0.01 22 1016.7
20210227190037 67 333 10.0 24.0 0.00 0.00 0.01 22 1016.7
20210227185623 67 353 13.0 18.0 0.00 0.00 0.01 22 1016.7
20210227185217 66 320 11.0 21.0 0.00 0.00 0.01 23 1016.8
20210227184853 66 344 12.0 20.0 0.00 0.00 0.01 23 1016.8
20210227184819 66 344 12.0 20.0 0.00 0.00 0.01 23 1016.8
20210227184414 66 332 13.0 20.0 0.00 0.00 0.01 23 1016.7
20210227184208 66 344 10.0 13.0 0.00 0.00 0.01 23 1016.8
20210227184037 66 344 10.0 13.0 0.00 0.00 0.01 23 1016.8
20210227183612 65 342 18.0 20.0 0.00 0.00 0.01 23 1016.6
20210227183212 65 342 13.0 18.0 0.00 0.00 0.01 24 1016.7
20210227183024 65 333 9.0 18.0 0.00 0.00 0.01 24 1016.7
20210227182433 65 326 18.0 21.0 0.00 0.00 0.01 24 1016.7
20210227182044 64 333 13.0 18.0 0.00 0.00 0.01 24 1016.6
20210227182025 64 333 13.0 18.0 0.00 0.00 0.01 24 1016.6
20210227181607 65 324 11.0 16.0 0.00 0.00 0.01 25 1016.5
20210227181206 64 337 10.0 16.0 0.00 0.00 0.01 25 1016.5
20210227180842 64 306 11.0 16.0 0.00 0.00 0.01 25 1016.4
20210227180802 64 306 11.0 16.0 0.00 0.00 0.01 25 1016.4
20210227180020 63 335 15.0 20.0 0.00 0.00 0.01 25 1016.4
20210227175558 63 321 17.0 20.0 0.00 0.00 0.01 26 1016.4
20210227175333 63 346 13.0 16.0 0.00 0.00 0.01 26 1016.5
20210227174909 63 321 10.0 19.0 0.00 0.00 0.01 26 1016.4
20210227174814 63 321 10.0 19.0 0.00 0.00 0.01 26 1016.4
20210227174354 62 330 9.0 19.0 0.00 0.00 0.01 26 1016.4
20210227173953 62 42 19.0 19.0 0.00 0.00 0.01 26 1016.3
20210227173552 62 348 19.0 21.0 0.00 0.00 0.01 26 1016.4
20210227172903 61 337 13.0 20.0 0.00 0.00 0.01 26 1016.3
20210227171545 61 351 13.0 19.0 0.00 0.00 0.01 27 1016.4
20210227171227 61 321 10.0 13.0 0.00 0.00 0.01 27 1016.5
20210227171144 61 321 10.0 13.0 0.00 0.00 0.01 27 1016.5
20210227170744 61 339 14.0 18.0 0.00 0.00 0.01 27 1016.4
20210227170342 61 4 18.0 18.0 0.00 0.00 0.01 27 1016.4
20210227165941 61 334 9.0 15.0 0.00 0.00 0.01 27 1016.5
20210227165542 61 33 10.0 14.0 0.00 0.00 0.01 27 1016.5
20210227165217 60 45 5.0 12.0 0.00 0.00 0.01 27 1016.6
20210227165137 60 45 5.0 12.0 0.00 0.00 0.01 27 1016.6
20210227164736 60 290 10.0 15.0 0.00 0.00 0.01 27 1016.6
20210227164335 59 357 14.0 21.0 0.00 0.00 0.01 27 1016.5
20210227163934 59 346 11.0 20.0 0.00 0.00 0.01 27 1016.7
20210227163607 59 333 19.0 30.0 0.00 0.00 0.01 27 1016.4
20210227163539 59 333 19.0 30.0 0.00 0.00 0.01 27 1016.4
20210227163134 59 348 7.0 11.0 0.00 0.00 0.01 27 1016.6
20210227162905 58 344 9.0 21.0 0.00 0.00 0.01 27 1016.6
20210227162457 58 353 10.0 13.0 0.00 0.00 0.01 27 1016.6
20210227162330 58 353 10.0 13.0 0.00 0.00 0.01 27 1016.6
20210227161933 58 321 10.0 10.0 0.00 0.00 0.01 27 1016.6
20210227161534 58 324 2.0 15.0 0.00 0.00 0.01 27 1016.6
20210227161127 58 315 4.0 23.0 0.00 0.00 0.01 27 1016.4
20210227160322 58 337 9.0 21.0 0.00 0.00 0.01 27 1016.2
20210227155922 58 342 10.0 12.0 0.00 0.00 0.01 27 1016.2
20210227155528 58 319 8.0 20.0 0.00 0.00 0.01 27 1016.0
20210227155326 58 0 11.0 22.0 0.00 0.00 0.01 27 1016.0
20210227155316 58 0 11.0 22.0 0.00 0.00 0.01 27 1016.0
20210227154722 58 337 11.0 20.0 0.00 0.00 0.01 27 1015.9
20210227154404 58 344 16.0 18.0 0.00 0.00 0.01 27 1015.9
20210227154317 58 344 16.0 18.0 0.00 0.00 0.01 27 1015.9
20210227153914 58 333 11.0 16.0 0.00 0.00 0.01 27 1015.8
20210227153154 57 335 13.0 18.0 0.00 0.00 0.01 27 1015.6
20210227153116 0 335 13.0 18.0 0.00 0.00 0.01 27 1015.6
20210227153114 57 335 13.0 18.0 0.00 0.00 0.01 27 1015.6
20210227152759 57 0 17.0 20.0 0.00 0.00 0.01 27 1015.6
20210227152417 57 353 20.0 24.0 0.00 0.00 0.01 27 1015.6
20210227152310 57 353 20.0 24.0 0.00 0.00 0.01 27 1015.6
20210227151909 57 330 7.0 18.0 0.00 0.00 0.01 27 1015.8
20210227151526 57 312 10.0 20.0 0.00 0.00 0.01 27 1015.7
20210227151140 57 337 15.0 25.0 0.00 0.00 0.01 27 1015.6
20210227151112 57 337 15.0 25.0 0.00 0.00 0.01 27 1015.6
20210227150750 57 347 7.0 19.0 0.00 0.00 0.01 27 1015.7
20210227150705 57 347 7.0 19.0 0.00 0.00 0.01 27 1015.7
20210227150305 57 326 14.0 18.0 0.00 0.00 0.01 27 1015.5
20210227145906 57 357 8.0 21.0 0.00 0.00 0.01 27 1015.5
20210227145538 57 344 12.0 21.0 0.00 0.00 0.01 27 1015.3
20210227145512 57 344 12.0 21.0 0.00 0.00 0.01 27 1015.3
20210227145102 57 0 19.0 22.0 0.00 0.00 0.01 27 1015.3
20210227144700 57 351 13.0 26.0 0.00 0.00 0.01 27 1015.4
20210227144300 57 340 9.0 24.0 0.00 0.00 0.01 27 1015.3
20210227143856 57 344 17.0 34.0 0.00 0.00 0.01 27 1015.2
20210227143456 56 355 11.0 23.0 0.00 0.00 0.00 27 1015.3
20210227142925 56 324 15.0 22.0 0.00 0.00 0.00 27 1015.1
20210227142251 57 0 17.0 26.0 0.00 0.00 0.00 27 1015.1
20210227141850 57 353 12.0 22.0 0.00 0.00 0.00 26 1015.0
20210227141525 57 0 21.0 21.0 0.00 0.00 0.00 26 1015.1
20210227141450 57 0 21.0 21.0 0.00 0.00 0.00 26 1015.1
20210227141050 54 0 15.0 18.0 0.00 0.00 0.00 26 1015.3
20210227141048 57 0 15.0 18.0 0.00 0.00 0.00 26 1015.3
20210227140647 57 2 18.0 19.0 0.00 0.00 0.00 26 1015.1
20210227140322 57 353 15.0 21.0 0.00 0.00 0.00 26 1015.1
20210227140245 57 353 15.0 21.0 0.00 0.00 0.00 26 1015.1
20210227135923 57 0 12.0 21.0 0.00 0.00 0.00 26 1015.1
20210227135842 57 0 12.0 21.0 0.00 0.00 0.00 26 1015.1
20210227135519 58 353 14.0 21.0 0.00 0.00 0.00 26 1015.0
20210227135443 58 353 14.0 21.0 0.00 0.00 0.00 26 1015.0
20210227135133 58 351 14.0 24.0 0.00 0.00 0.00 26 1015.0
20210227134642 58 353 17.0 24.0 0.00 0.00 0.00 26 1014.9
20210227134237 58 357 11.0 23.0 0.00 0.00 0.00 26 1015.1
20210227133839 58 353 13.0 20.0 0.00 0.00 0.00 26 1015.0
20210227133524 58 2 15.0 23.0 0.00 0.00 0.00 26 1014.9
20210227133439 58 2 15.0 23.0 0.00 0.00 0.00 26 1014.9
20210227133126 58 0 12.0 26.0 0.00 0.00 0.00 25 1015.0
20210227133034 58 0 12.0 26.0 0.00 0.00 0.00 25 1015.0
20210227132815 58 348 17.0 32.0 0.00 0.00 0.00 25 1014.6
20210227132233 58 0 19.0 23.0 0.00 0.00 0.00 25 1014.6
20210227131834 58 0 19.0 27.0 0.00 0.00 0.00 25 1014.4
20210227131430 58 333 12.0 26.0 0.00 0.00 0.00 25 1014.5
20210227131030 58 2 15.0 28.0 0.00 0.00 0.00 25 1014.3
20210227130627 58 351 21.0 28.0 0.00 0.00 0.00 24 1014.3
20210227130226 57 344 13.0 19.0 0.00 0.00 0.00 24 1014.3
20210227125907 55 353 11.0 12.0 0.00 0.00 0.00 24 1014.6
20210227125825 55 353 11.0 12.0 0.00 0.00 0.00 24 1014.6
20210227125520 54 15 8.0 8.0 0.00 0.00 0.00 24 1014.6
20210227125424 54 15 8.0 8.0 0.00 0.00 0.00 24 1014.6
20210227125201 55 180 2.0 9.0 0.00 0.00 0.00 24 1014.5
20210227124620 54 4 7.0 11.0 0.00 0.00 0.00 23 1014.5
20210227124257 52 0 4.0 5.0 0.00 0.00 0.00 23 1014.6
20210227124222 52 0 4.0 5.0 0.00 0.00 0.00 23 1014.6
20210227124219 52 0 4.0 5.0 0.00 0.00 0.00 23 1014.6
20210227123903 51 320 1.0 6.0 0.00 0.00 0.00 23 1014.6
20210227123826 51 320 1.0 6.0 0.00 0.00 0.00 23 1014.6
20210227123416 51 299 2.0 3.0 0.00 0.00 0.00 23 1014.6
20210227123029 51 290 1.0 4.0 0.00 0.00 0.00 23 1014.7
20210227122749 51 267 1.0 6.0 0.00 0.00 0.00 23 1014.5
20210227122219 51 207 3.0 6.0 0.00 0.00 0.00 23 1014.5
20210227121902 51 45 5.0 5.0 0.00 0.00 0.00 23 1014.6
20210227121818 51 45 5.0 5.0 0.00 0.00 0.00 23 1014.6
20210227121529 51 234 3.0 10.0 0.00 0.00 0.00 23 1014.5
20210227121410 51 234 3.0 10.0 0.00 0.00 0.00 23 1014.5
20210227120608 50 315 1.0 2.0 0.00 0.00 0.00 23 1014.5
20210227120205 50 258 2.0 3.0 0.00 0.00 0.00 23 1014.6
20210227115804 51 270 3.0 5.0 0.00 0.00 0.00 22 1014.4
20210227115441 51 270 3.0 5.0 0.00 0.00 0.00 22 1014.6
20210227115201 52 200 4.0 4.0 0.00 0.00 0.00 22 1014.5
20210227114602 53 220 1.0 4.0 0.00 0.00 0.00 22 1014.4
20210227114206 53 234 1.0 2.0 0.00 0.00 0.00 23 1014.4
20210227113805 54 317 4.0 8.0 0.00 0.00 0.00 23 1014.4
20210227113405 54 45 6.0 8.0 0.00 0.00 0.00 23 1014.4
20210227113027 52 231 3.0 3.0 0.00 0.00 0.00 23 1014.4
20210227112903 53 218 2.0 2.0 0.00 0.00 0.00 23 1014.3
20210227112751 53 218 2.0 2.0 0.00 0.00 0.00 23 0.1
20210227112749 53 218 2.0 2.0 0.00 0.00 0.00 23 1014.3
20210227112232 54 270 1.0 2.0 0.00 0.00 0.00 23 1014.5
20210227112157 54 270 1.0 2.0 0.00 0.00 0.00 23 1014.5
20210227111839 54 328 3.0 4.0 0.00 0.00 0.00 23 1014.4
20210227111758 54 328 3.0 4.0 0.00 0.00 0.00 23 1014.4
20210227111435 54 303 3.0 6.0 0.00 0.00 0.00 23 1014.5
20210227111356 54 303 3.0 6.0 0.00 0.00 0.00 23 1014.5
20210227111055 54 0 5.0 5.0 0.00 0.00 0.00 23 1014.5
20210227110951 54 0 5.0 5.0 0.00 0.00 0.00 23 1014.5
20210227110621 55 270 4.0 4.0 0.00 0.00 0.00 23 1014.5
20210227110548 55 270 4.0 4.0 0.00 0.00 0.00 23 1014.5
20210227105835 55 27 3.0 7.0 0.00 0.00 0.00 23 1014.6
20210227105747 55 27 3.0 7.0 0.00 0.00 0.00 23 1014.6
20210227105428 55 348 5.0 7.0 0.00 0.00 0.00 23 1014.7
20210227105408 55 348 5.0 7.0 0.00 0.00 0.00 23 1014.7
20210227105131 55 312 3.0 9.0 0.00 0.00 0.00 23 1014.7
20210227104546 55 308 4.0 9.0 0.00 0.00 0.00 23 1014.6
20210227104141 55 319 5.0 7.0 0.00 0.00 0.00 23 1014.6
20210227103814 55 333 3.0 10.0 0.00 0.00 0.00 23 1014.7
20210227103743 55 333 3.0 10.0 0.00 0.00 0.00 23 1014.7
20210227103739 55 333 3.0 10.0 0.00 0.00 0.00 23 1014.7
20210227103338 54 357 10.0 10.0 0.00 0.00 0.00 23 1014.7
20210227102943 53 355 0.0 3.0 0.00 0.00 0.00 23 1014.7
20210227102642 53 45 0.0 0.0 0.00 0.00 0.00 23 1014.8
20210227102206 54 45 1.0 5.0 0.00 0.00 0.00 23 1014.8
20210227102138 54 45 1.0 5.0 0.00 0.00 0.00 1014.8
20210227101732 54 45 4.0 7.0 0.00 0.00 0.00 23 1014.7
20210227101333 53 60 3.0 5.0 0.00 0.00 0.00 23 1014.8